sat.trackr.live / text

‹ back to catalog

LEMUR-2-HCS-BAZUS

NORAD 67388 · 2026-004AB

PAYLOAD ACTIVE UNKNOWN

§ Identity

Operator
Country
US
Launch date
2026-01-11
Launch site
AFWTR
Launch vehicle
Mass (kg)
RCS (m²)

Purposes: earth_obs

External: N2YO · Heavens-Above · Gunter

§ Orbital elements

Epoch: 2026-05-25T01:14:39.313824Z

Period
96.66 min
Inclination
97.8026°
Eccentricity
0.0003551
Mean motion
14.89822276 rev/d
Perigee alt
596.0 km
Apogee alt
601.0 km
Semi-major
6,976.6 km
B*
4.2012e-4
RAAN
144.3424°
Arg perigee
134.0494°
Mean anomaly
226.1016°
Rev number
1,986

§ Raw data

LEMUR-2-HCS-BAZUS1 67388U 26004AB  26145.05184391  .00003979  00000+0  42012-3 0  99922 67388  97.8026 144.3424 0003551 134.0494 226.1016 14.89822276 19868

JSON: /api/v1/satellites/67388 · /tle

For live sub-satellite position, see the globe view (requires WebGL).

§ Visibility from observer

Set your observer location to see the next 7 days of passes ≥ 10°. The values pass through the URL so the page stays shareable.

No JS? Fill the form by hand. The geolocation button needs JavaScript.